Location: Grossmotten
(48.5500°N, 15.3833°E)
Time: 08:55:26
(UTC+00:00)

CZ-4C R/B - Pass Details

Date: 15 November 2019
Orbit: 650 x 1352 km, 63.4° (Epoch: 09 December)

Event Time Altitude Azimuth Distance (km) Brightness Sun altitude
Exits shadow 04:12:39 20° 321° (NW) 1,967 3.7 -18.6°
Maximum altitude 04:14:37 24° 348° (NNW) 1,881 3.8 -18.3°
Drops below altitude 10° 04:19:55 10° 40° (NE) 2,892 5.4 -17.4°
Sets 04:23:26 0° 53° (NE) 3,981 6.4 -16.9°
